Year,Month,Day,Hour,Minute,Value (Times are PST for temperature in C)
2012,07,20,14,11,18.90
2012,07,20,14,12,18.90
2012,07,20,14,13,19.00
2012,07,20,14,14,19.00
2012,07,20,14,15,19.10
2012,07,20,14,16,19.10
2012,07,20,14,17,19.20
2012,07,20,14,18,19.20
2012,07,20,14,19,19.20
2012,07,20,14,20,19.20
2012,07,20,14,21,19.20
2012,07,20,14,22,19.20
2012,07,20,14,23,19.20
2012,07,20,14,24,19.10
2012,07,20,14,25,19.10
2012,07,20,14,26,19.10
2012,07,20,14,27,19.10
2012,07,20,14,28,19.00
2012,07,20,14,29,19.00
2012,07,20,14,30,18.90
2012,07,20,14,31,18.90
2012,07,20,14,32,19.00
2012,07,20,14,33,19.00
2012,07,20,14,34,19.10
2012,07,20,14,35,19.10
2012,07,20,14,36,19.10
2012,07,20,14,37,19.20
2012,07,20,14,38,19.20
2012,07,20,14,39,19.30
2012,07,20,14,40,19.30
2012,07,20,14,41,19.40
2012,07,20,14,42,19.40
2012,07,20,14,43,19.50
2012,07,20,14,44,19.60
2012,07,20,14,45,19.60
2012,07,20,14,46,19.60
2012,07,20,14,47,19.50
2012,07,20,14,48,19.50
2012,07,20,14,49,19.40
2012,07,20,14,50,19.30
2012,07,20,14,51,19.30
2012,07,20,14,52,19.30
2012,07,20,14,53,19.30
2012,07,20,14,54,19.30
2012,07,20,14,55,19.30
2012,07,20,14,56,19.30
2012,07,20,14,57,19.30
2012,07,20,14,58,19.30
2012,07,20,14,59,19.30
2012,07,20,15,00,19.30
2012,07,20,15,01,19.20
2012,07,20,15,02,19.20
2012,07,20,15,03,19.20
2012,07,20,15,04,19.20
2012,07,20,15,05,19.20
2012,07,20,15,06,19.20
2012,07,20,15,07,19.20
2012,07,20,15,08,19.20
2012,07,20,15,09,19.10
2012,07,20,15,10,19.10
2012,07,20,15,11,19.00
2012,07,20,15,12,18.90
2012,07,20,15,13,18.90
2012,07,20,15,14,18.90
2012,07,20,15,15,18.90
2012,07,20,15,16,18.90
2012,07,20,15,17,18.90
2012,07,20,15,18,18.80
2012,07,20,15,19,18.80
2012,07,20,15,20,18.70
2012,07,20,15,21,18.70
2012,07,20,15,22,18.70
2012,07,20,15,23,18.70
2012,07,20,15,24,18.70
2012,07,20,15,25,18.60
2012,07,20,15,26,18.60
2012,07,20,15,27,18.60
2012,07,20,15,28,18.60
2012,07,20,15,29,18.60
2012,07,20,15,30,18.50
2012,07,20,15,31,18.50
2012,07,20,15,32,18.60
2012,07,20,15,33,18.60
2012,07,20,15,34,18.60
2012,07,20,15,35,18.60
2012,07,20,15,36,18.70
2012,07,20,15,37,18.70
2012,07,20,15,38,18.70
2012,07,20,15,39,18.80
2012,07,20,15,40,18.80
2012,07,20,15,41,18.80
2012,07,20,15,42,18.80
2012,07,20,15,43,18.80
2012,07,20,15,44,18.80
2012,07,20,15,45,18.80
2012,07,20,15,46,18.80
2012,07,20,15,47,18.80
2012,07,20,15,48,18.70
2012,07,20,15,49,18.60
2012,07,20,15,50,18.50
2012,07,20,15,51,18.40
2012,07,20,15,52,18.30
2012,07,20,15,53,18.30
2012,07,20,15,54,18.20
2012,07,20,15,55,18.20
2012,07,20,15,56,18.20
2012,07,20,15,57,18.20
2012,07,20,15,58,18.20
2012,07,20,15,59,18.20
2012,07,20,16,00,18.20
2012,07,20,16,01,18.20
2012,07,20,16,02,18.20
2012,07,20,16,03,18.20
2012,07,20,16,04,18.10
2012,07,20,16,05,18.00
2012,07,20,16,06,18.00
2012,07,20,16,07,17.90
2012,07,20,16,08,17.90
2012,07,20,16,09,17.90
2012,07,20,16,10,17.80
2012,07,20,16,11,17.80
2012,07,20,16,12,17.80
2012,07,20,16,13,17.70
2012,07,20,16,14,17.70
2012,07,20,16,15,17.70
2012,07,20,16,16,17.70
2012,07,20,16,17,17.60
2012,07,20,16,18,17.60
2012,07,20,16,19,17.60
2012,07,20,16,20,17.60
2012,07,20,16,21,17.60
2012,07,20,16,22,17.60
2012,07,20,16,23,17.60
2012,07,20,16,24,17.60
2012,07,20,16,25,17.60
2012,07,20,16,26,17.60
2012,07,20,16,27,17.60
2012,07,20,16,28,17.60
2012,07,20,16,29,17.60
2012,07,20,16,30,17.60
2012,07,20,16,31,17.60
2012,07,20,16,32,17.60
2012,07,20,16,33,17.50
2012,07,20,16,34,17.60
2012,07,20,16,35,17.60
2012,07,20,16,36,17.60
2012,07,20,16,37,17.60
2012,07,20,16,38,17.60
2012,07,20,16,39,17.60
2012,07,20,16,40,17.60
2012,07,20,16,41,17.50
2012,07,20,16,42,17.50
2012,07,20,16,43,17.60
2012,07,20,16,44,17.60
2012,07,20,16,45,17.60
2012,07,20,16,46,17.60
2012,07,20,16,47,17.70
2012,07,20,16,48,17.70
2012,07,20,16,49,17.80
2012,07,20,16,50,17.80
2012,07,20,16,51,17.90
2012,07,20,16,52,18.00
2012,07,20,16,53,18.10
2012,07,20,16,54,18.10
2012,07,20,16,55,18.20
2012,07,20,16,56,18.20
2012,07,20,16,57,18.30
2012,07,20,16,58,18.30
2012,07,20,16,59,18.40
2012,07,20,17,00,18.50
2012,07,20,17,01,18.50
2012,07,20,17,02,18.50
2012,07,20,17,03,18.60
2012,07,20,17,04,18.60
2012,07,20,17,05,18.70
2012,07,20,17,06,18.70
2012,07,20,17,07,18.70
2012,07,20,17,08,18.80
2012,07,20,17,09,18.80
2012,07,20,17,10,18.80
2012,07,20,17,11,18.80
2012,07,20,17,12,18.80
2012,07,20,17,13,18.80
2012,07,20,17,14,18.80
2012,07,20,17,15,18.90
2012,07,20,17,16,18.90
2012,07,20,17,17,18.80
2012,07,20,17,18,18.80
2012,07,20,17,19,18.80
2012,07,20,17,20,18.80
2012,07,20,17,21,18.70
2012,07,20,17,22,18.80
2012,07,20,17,23,18.80
2012,07,20,17,24,18.80
2012,07,20,17,25,18.80
2012,07,20,17,26,18.80
2012,07,20,17,27,18.80
2012,07,20,17,28,18.80
2012,07,20,17,29,18.80
2012,07,20,17,30,18.80
2012,07,20,17,31,18.80
2012,07,20,17,32,18.80
2012,07,20,17,33,18.80
2012,07,20,17,34,18.80
2012,07,20,17,35,18.80
2012,07,20,17,36,18.80
2012,07,20,17,37,18.80
2012,07,20,17,38,18.80
2012,07,20,17,39,18.90
2012,07,20,17,40,18.90
2012,07,20,17,41,18.90
2012,07,20,17,42,18.90
2012,07,20,17,43,18.90
2012,07,20,17,44,18.90
2012,07,20,17,45,19.00
2012,07,20,17,46,19.10
2012,07,20,17,47,19.10
2012,07,20,17,48,19.10
2012,07,20,17,49,19.10
2012,07,20,17,50,19.10
2012,07,20,17,51,19.20
2012,07,20,17,52,19.20
2012,07,20,17,53,19.20
2012,07,20,17,54,19.20
2012,07,20,17,55,19.20
2012,07,20,17,56,19.20
2012,07,20,17,57,19.20
2012,07,20,17,58,19.10
2012,07,20,17,59,19.10
2012,07,20,18,00,19.10
2012,07,20,18,01,19.10
2012,07,20,18,02,19.10
2012,07,20,18,03,19.00
2012,07,20,18,04,19.00
2012,07,20,18,05,18.90
2012,07,20,18,06,18.90
2012,07,20,18,07,18.80
2012,07,20,18,08,18.80
2012,07,20,18,09,18.80
2012,07,20,18,10,18.80
2012,07,20,18,11,18.80
2012,07,20,18,12,18.80
2012,07,20,18,13,18.80
2012,07,20,18,14,18.80
2012,07,20,18,15,18.70
2012,07,20,18,16,18.70
2012,07,20,18,17,18.80
2012,07,20,18,18,18.80
2012,07,20,18,19,18.80
2012,07,20,18,20,18.70
2012,07,20,18,21,18.70
2012,07,20,18,22,18.70
2012,07,20,18,23,18.70
2012,07,20,18,24,18.70
2012,07,20,18,25,18.70
2012,07,20,18,26,18.70
2012,07,20,18,27,18.70
2012,07,20,18,28,18.70
2012,07,20,18,29,18.70
2012,07,20,18,30,18.70
2012,07,20,18,31,18.60
2012,07,20,18,32,18.60
2012,07,20,18,33,18.70
2012,07,20,18,34,18.70
2012,07,20,18,35,18.70
2012,07,20,18,36,18.70
2012,07,20,18,37,18.80
2012,07,20,18,38,18.80
2012,07,20,18,39,18.80
2012,07,20,18,40,18.90
2012,07,20,18,41,18.90
2012,07,20,18,42,18.90
2012,07,20,18,43,18.90
2012,07,20,18,44,18.90
2012,07,20,18,45,19.00
2012,07,20,18,46,19.10
2012,07,20,18,47,19.20
2012,07,20,18,48,19.20
2012,07,20,18,49,19.20
2012,07,20,18,50,19.20
2012,07,20,18,51,19.20
2012,07,20,18,52,19.30
2012,07,20,18,53,19.30
2012,07,20,18,54,19.30
2012,07,20,18,55,19.30
2012,07,20,18,56,19.30
2012,07,20,18,57,19.30
2012,07,20,18,58,19.30
2012,07,20,18,59,19.30
2012,07,20,19,00,19.30
2012,07,20,19,01,19.30
2012,07,20,19,02,19.30
2012,07,20,19,03,19.30
2012,07,20,19,04,19.20
2012,07,20,19,05,19.20
2012,07,20,19,06,19.10
2012,07,20,19,07,19.10
2012,07,20,19,08,19.10
2012,07,20,19,09,19.10
2012,07,20,19,10,19.10
2012,07,20,19,11,19.00
2012,07,20,19,12,19.00
2012,07,20,19,13,18.90
2012,07,20,19,14,18.90
2012,07,20,19,15,18.80
2012,07,20,19,16,18.80
2012,07,20,19,17,18.70
2012,07,20,19,18,18.70
2012,07,20,19,19,18.60
2012,07,20,19,20,18.60
2012,07,20,19,21,18.50
2012,07,20,19,22,18.50
2012,07,20,19,23,18.40
2012,07,20,19,24,18.30
2012,07,20,19,25,18.20
2012,07,20,19,26,18.10
2012,07,20,19,27,18.00
2012,07,20,19,28,18.00
2012,07,20,19,29,17.90
2012,07,20,19,30,17.90
2012,07,20,19,31,17.90
2012,07,20,19,32,17.80
2012,07,20,19,33,17.80
2012,07,20,19,34,17.80
2012,07,20,19,35,17.70
2012,07,20,19,36,17.70
2012,07,20,19,37,17.70
2012,07,20,19,38,17.70
2012,07,20,19,39,17.70
2012,07,20,19,40,17.60
2012,07,20,19,41,17.60
2012,07,20,19,42,17.60
2012,07,20,19,43,17.60
2012,07,20,19,44,17.50
2012,07,20,19,45,17.50
2012,07,20,19,46,17.40
2012,07,20,19,47,17.40
2012,07,20,19,48,17.40
2012,07,20,19,49,17.40
2012,07,20,19,50,17.30
2012,07,20,19,51,17.30
2012,07,20,19,52,17.30
2012,07,20,19,53,17.20
2012,07,20,19,54,17.20
2012,07,20,19,55,17.20
2012,07,20,19,56,17.20
2012,07,20,19,57,17.20
2012,07,20,19,58,17.20
2012,07,20,19,59,17.20
2012,07,20,20,00,17.20
2012,07,20,20,01,17.20
2012,07,20,20,02,17.20
2012,07,20,20,03,17.20
2012,07,20,20,04,17.20
2012,07,20,20,05,17.20
2012,07,20,20,06,17.20
2012,07,20,20,07,17.20
2012,07,20,20,08,17.10
2012,07,20,20,09,17.10
2012,07,20,20,10,17.10
2012,07,20,20,11,17.10
2012,07,20,20,12,17.10
2012,07,20,20,13,17.10
2012,07,20,20,14,17.10
2012,07,20,20,15,17.10
2012,07,20,20,16,17.00
2012,07,20,20,17,17.00
2012,07,20,20,18,17.00
2012,07,20,20,19,17.00
2012,07,20,20,20,16.90
2012,07,20,20,21,16.90
2012,07,20,20,22,16.90
2012,07,20,20,23,16.90
2012,07,20,20,24,16.90
2012,07,20,20,25,16.90
2012,07,20,20,26,16.90
2012,07,20,20,27,16.90
2012,07,20,20,28,16.90
2012,07,20,20,29,16.80
2012,07,20,20,30,16.80
2012,07,20,20,31,16.80
2012,07,20,20,32,16.80
2012,07,20,20,33,16.80
2012,07,20,20,34,16.80
2012,07,20,20,35,16.80
2012,07,20,20,36,16.80
2012,07,20,20,37,16.80
2012,07,20,20,38,16.80
